Find Starlink 3344

NORAD ID: 51110 Int'l Des: 2022-005 Owner: SPXS Country: US Constellation: starlink operational
LEOCIRCULAR

当前视图

正在加载3D地球...

About Starlink 3344

Starlink 3344 (NORAD 51110) is a starlink constellation satellite (v1.5) launched Jan 19, 2022 by SPXS of US. It operates in LEO, CIRCULAR orbit with a mass of 297.00 kg.

关于 Starlink 3344

正在加载描述...

即将过境

Passes for default location (London). Set your location on the main map for personalized predictions.

高度历史

Loading altitude history...

两行轨道根数

1 51110U 22005G 26171.43739289 -.00000625 00000-0 -21211-4 0 9995
2 51110 53.1587 187.7310 0001267 93.8561 266.2575 15.08827069244395
Epoch: Jun 20, 2026 • Age: 16 hours

当前状态

高度 545.4 km
速度 7.60 km/s
星下点 52.78°N, 47.26°W
发射日期 Jan 19, 2022
运行时间 4.4 years
类型 internet

技术详情

分类 Payload
质量 297.00 kg
干质量 275.00 kg
总质量 297.00 kg
长度 0.20 m
直径 2.80 m
跨度 9.00 m
形状 Box + pan
制造商 SPXS
平台类型 Starlink
阶段状态 In Orbit
所有者/国家 SPXS/US

Most Searched